Wind_Speed
11 11 10 10 9 9 9 9 9 8 7 6 6 6 6 6 7 6 5 5 4 4 5 6 6 5 4 5 5 6 6 7 7 7 6 7 8 9 9 9 10 10 11
11 11 11 10 9 8 8 9 8 8 8 7 7 6 6 6 6 6 5 5 5 5 6 6 6 6 5 6 6 7 7 7 7 7 7 7 8 9 9 10 11 11 11
10 10 11 11 10 10 10 10 9 9 8 7 7 6 6 6 6 6 6 5 5 5 6 7 7 8 8 7 6 7 8 8 8 8 8 9 10 10 11 11 12 12 12
11 12 11 11 11 11 11 11 11 10 9 8 8 8 7 7 7 6 6 6 7 7 7 8 8 8 8 8 8 8 9 9 9 10 10 11 11 11 12 12 13 13 13
11 11 11 11 11 11 12 12 11 11 10 10 9 9 9 8 8 8 7 8 8 9 9 9 10 10 10 10 10 10 10 11 11 11 11 12 12 11 12 13 13 14 14
11 12 11 10 10 11 12 12 11 11 11 10 10 10 10 9 9 8 8 8 9 10 10 10 10 10 10 10 11 11 12 12 12 12 12 13 13 13 13 13 14 15 15
12 12 13 11 11 11 11 12 12 11 11 11 10 10 10 9 9 9 10 11 11 12 12 11 10 10 11 11 12 12 12 13 13 13 13 13 13 13 14 14 14 14 15
12 13 14 15 13 13 12 12 11 12 12 11 11 11 10 10 10 11 11 12 12 13 12 11 12 12 12 12 13 13 13 13 14 14 14 14 15 15 15 14 14 15 15
12 12 13 15 15 15 13 12 12 12 13 12 12 12 11 11 12 12 13 13 13 14 14 13 13 12 13 13 13 13 14 14 14 14 15 15 16 16 16 16 16 16 16
12 13 13 14 15 15 15 14 14 13 13 13 13 12 12 13 13 13 14 14 14 14 15 14 14 14 14 14 14 14 14 15 16 16 16 17 17 17 17 18 18 19 18
13 14 14 15 15 15 15 15 14 13 14 14 14 14 14 13 13 14 14 15 15 16 16 16 16 16 16 15 15 16 16 16 17 17 17 18 18 18 18 19 19 19 20
14 14 15 15 15 15 15 15 15 14 15 15 15 15 15 14 15 15 15 16 17 17 18 18 17 18 18 17 17 17 17 17 17 18 18 19 19 19 20 20 20 21 21
14 15 16 16 16 16 16 15 15 16 16 16 16 16 16 16 16 17 17 18 18 18 18 18 18 18 18 18 18 18 18 18 18 19 20 20 20 20 20 21 22 23 23
15 16 17 17 16 16 16 16 17 18 17 18 18 18 17 17 18 18 19 19 19 19 19 18 19 19 19 19 19 19 19 19 19 20 21 21 21 22 22 23 23 24 24
17 17 18 18 17 17 18 18 18 18 18 18 19 19 19 19 19 20 20 21 20 20 20 20 20 20 21 20 21 20 20 20 21 21 21 22 22 23 24 24 24 24 25
19 19 19 20 19 19 19 20 20 19 19 20 20 20 21 21 21 21 21 21 21 22 22 22 22 22 21 21 21 21 21 21 22 22 22 23 23 23 24 24 24 24 25
21 21 21 20 20 20 21 21 21 21 20 21 20 21 21 22 22 22 23 23 23 23 24 25 24 24 24 23 22 21 22 22 22 23 23 23 23 24 24 24 24 25 26
21 21 21 20 20 21 22 23 23 22 21 21 22 22 23 23 23 24 24 24 24 25 25 25 25 24 24 23 23 22 22 23 23 23 23 23 23 23 23 24 24 25 26
21 21 22 22 22 23 24 25 25 24 23 23 23 24 24 24 24 24 25 25 25 26 26 25 25 24 24 24 24 24 23 23 24 24 24 24 24 24 24 25 25 25 25
22 22 23 24 24 25 25 25 24 24 24 24 24 25 25 25 25 25 25 25 26 26 26 26 25 26 25 25 24 25 24 24 25 25 25 24 24 25 26 27 26 26 26
24 23 23 24 25 25 25 25 25 25 25 26 26 26 26 26 26 26 26 26 26 27 26 26 26 26 26 26 26 26 25 25 25 25 25 25 26 26 26 27 27 27 27
25 24 24 25 25 26 26 26 26 27 27 27 27 28 27 27 27 26 26 26 27 27 27 27 27 26 26 26 26 26 25 25 26 25 25 26 26 27 27 26 27 28 28
25 25 26 26 27 27 27 27 28 27 28 28 28 28 28 27 26 26 26 27 27 27 28 27 27 26 27 26 26 26 26 26 26 25 25 26 26 26 26 26 27 28 29
26 27 27 28 28 28 29 29 29 29 29 29 28 28 28 28 28 27 27 27 28 28 27 27 27 27 26 27 26 27 26 26 26 25 25 25 25 26 27 27 28 29 29
26 27 28 28 28 29 28 28 29 29 29 29 28 28 28 28 28 27 28 28 28 28 28 28 28 27 27 27 27 26 26 26 26 26 26 26 26 27 27 28 29 29 29
26 26 27 28 29 28 28 28 29 29 29 29 28 28 28 27 27 27 27 28 28 28 28 28 29 28 27 26 26 25 25 26 26 26 27 27 27 27 28 29 29 29 29
Wind_Direction
3 5 7 10 9 8 2 360 3 0 360 358 355 358 359 1 4 4 358 348 336 328 326 321 318 319 295 280 270 263 254 249 251 259 262 257 254 253 253 249 246 244 246
2 2 2 360 359 359 356 353 355 354 354 351 349 347 349 351 349 354 352 341 329 319 318 315 308 308 302 291 278 271 263 261 259 261 268 267 264 259 257 252 250 248 250
360 359 354 353 353 352 355 353 351 350 346 342 340 337 338 342 342 343 345 336 326 317 314 309 302 299 296 290 280 271 266 265 264 264 268 267 265 264 262 256 252 251 253
356 353 348 347 348 349 348 348 349 346 341 333 330 327 327 328 328 332 336 325 317 313 311 309 306 304 300 295 286 281 274 272 271 270 269 266 266 264 262 261 255 252 253
347 346 344 341 343 342 340 340 342 341 338 332 325 321 320 321 318 319 323 322 318 316 312 306 302 298 294 292 288 284 279 275 272 273 271 270 269 268 266 262 260 256 254
338 338 337 335 337 338 336 334 333 334 335 332 330 327 322 319 317 316 315 317 317 311 309 305 301 298 295 292 289 286 284 283 278 276 273 273 272 270 267 264 260 259 259
334 334 335 332 332 333 333 330 328 329 330 329 326 323 322 324 321 315 312 313 316 313 308 313 309 304 301 296 291 287 285 282 279 279 279 279 278 275 271 268 265 265 264
330 332 333 334 333 333 332 330 329 330 330 329 326 322 322 321 318 313 309 310 312 313 308 307 306 302 301 298 294 288 283 281 277 275 278 277 276 276 276 276 275 273 272
327 330 332 330 331 332 334 334 333 333 333 332 329 323 319 316 315 313 310 311 311 312 310 306 304 301 303 302 298 292 285 283 279 276 276 276 276 274 275 275 275 276 274
329 327 329 329 330 332 334 334 332 333 334 333 327 321 315 312 311 311 309 307 305 307 307 308 305 303 300 298 296 293 285 282 281 278 276 275 276 275 274 274 276 275 273
317 320 324 325 326 329 330 331 328 329 330 328 326 322 317 312 310 309 309 307 304 303 303 303 302 301 301 296 294 292 287 283 281 279 278 277 277 277 275 275 275 275 275
316 317 323 325 326 326 325 323 323 322 321 320 319 318 318 312 309 307 305 305 305 302 299 299 300 298 298 298 296 293 288 284 280 278 278 278 278 278 277 275 275 275 274
314 318 320 321 320 320 319 317 316 317 317 316 315 315 314 313 310 308 306 305 304 302 300 298 298 299 298 298 297 295 291 286 282 278 276 276 277 278 278 277 276 276 275
310 312 315 316 316 316 317 315 313 313 313 313 312 309 309 309 309 308 307 306 303 301 300 299 298 298 297 297 297 296 292 288 284 280 278 277 277 276 277 277 277 276 276
310 307 308 310 311 311 312 310 310 308 307 307 308 307 306 306 306 305 304 303 302 301 301 300 298 296 295 294 295 293 291 290 286 283 281 279 279 278 278 277 276 275 276
304 304 304 307 309 309 309 308 307 306 306 305 305 305 304 304 305 306 306 303 302 302 301 300 297 296 294 293 289 288 288 287 287 284 283 281 279 281 282 280 278 276 276
301 303 304 305 305 306 306 306 304 303 303 302 303 304 303 303 303 303 304 303 302 301 300 298 296 294 293 292 289 287 288 288 288 286 284 282 280 280 281 281 280 279 277
297 299 300 301 302 303 305 306 306 304 303 302 302 303 303 302 301 301 302 302 301 300 299 297 296 294 292 289 287 287 289 290 289 288 285 282 280 282 283 283 282 281 278
295 297 297 298 300 302 303 304 304 305 304 303 303 302 301 300 300 301 302 302 302 300 299 299 298 296 292 287 285 285 288 289 290 290 286 283 281 282 283 283 283 281 279
295 296 296 296 299 300 301 303 303 303 303 303 302 302 300 299 299 300 301 301 301 300 298 297 298 297 293 289 285 286 287 289 290 289 288 287 285 282 282 283 283 282 281
294 295 295 297 298 298 300 302 303 303 302 303 303 303 301 300 300 300 301 301 300 300 300 299 297 296 294 292 289 288 288 290 292 290 288 287 287 283 284 284 283 282 282
291 293 295 297 297 298 300 302 302 302 302 302 302 302 300 300 299 298 300 301 301 301 299 299 297 296 295 291 289 289 290 291 291 290 289 288 287 285 284 284 283 283 283
292 293 294 295 295 297 299 301 302 301 301 300 300 300 300 299 298 298 298 300 301 301 299 299 298 296 295 293 292 291 291 290 291 290 288 287 287 286 285 284 284 285 284
292 292 293 294 297 298 299 299 300 300 300 299 299 298 298 298 298 297 297 298 299 299 299 297 295 294 294 294 293 291 291 292 293 292 289 289 288 287 287 286 285 285 285
291 292 294 296 298 299 299 300 301 300 299 298 298 298 297 297 297 297 297 297 297 298 298 296 294 293 293 292 293 295 294 295 295 294 292 290 289 288 288 287 286 285 285
291 293 294 296 298 299 300 301 301 301 300 300 299 298 298 297 298 297 298 298 298 298 298 296 295 294 295 295 295 296 297 296 294 293 291 289 289 288 287 288 288 287 286
Height
5911 5909 5907 5905 5903 5901 5900 5898 5896 5894 5893 5891 5890 5888 5887 5886 5884 5883 5882 5881 5880 5879 5878 5878 5877 5876 5875 5875 5874 5874 5874 5874 5874 5873 5873 5873 5873 5873 5872 5872 5873 5873 5873
5911 5909 5907 5906 5904 5901 5899 5898 5895 5894 5892 5890 5889 5888 5886 5885 5883 5882 5881 5880 5879 5878 5877 5877 5876 5875 5874 5873 5873 5873 5872 5872 5872 5872 5871 5871 5871 5870 5870 5869 5869 5870 5870
5910 5909 5907 5905 5903 5901 5899 5897 5894 5892 5891 5889 5888 5886 5885 5884 5882 5881 5880 5879 5877 5877 5876 5875 5874 5873 5872 5872 5871 5871 5871 5870 5870 5869 5869 5868 5868 5867 5867 5867 5867 5867 5867
5909 5907 5905 5904 5902 5900 5898 5896 5894 5891 5889 5888 5886 5885 5884 5882 5881 5880 5878 5877 5876 5875 5874 5873 5872 5871 5871 5870 5869 5868 5868 5867 5867 5866 5866 5866 5865 5865 5864 5864 5863 5864 5864
5907 5906 5904 5902 5901 5898 5896 5894 5892 5890 5888 5886 5884 5883 5882 5880 5879 5878 5877 5875 5874 5873 5871 5871 5870 5869 5868 5867 5866 5866 5865 5865 5864 5863 5863 5862 5862 5861 5861 5860 5860 5860 5860
5906 5904 5902 5899 5898 5896 5894 5892 5890 5888 5886 5884 5882 5881 5879 5878 5877 5876 5875 5873 5872 5870 5869 5868 5867 5866 5865 5864 5863 5863 5862 5861 5861 5860 5859 5859 5858 5857 5857 5856 5856 5856 5856
5904 5902 5900 5897 5896 5894 5892 5890 5888 5886 5884 5882 5880 5878 5877 5876 5875 5873 5872 5871 5870 5868 5867 5865 5864 5863 5862 5861 5860 5859 5858 5858 5857 5856 5856 5855 5854 5854 5853 5853 5852 5852 5852
5903 5901 5899 5896 5894 5893 5889 5887 5886 5884 5882 5880 5878 5876 5875 5873 5872 5871 5869 5868 5867 5865 5864 5862 5861 5860 5858 5857 5856 5855 5854 5854 5853 5852 5852 5851 5850 5850 5849 5848 5848 5848 5847
5901 5899 5897 5895 5893 5890 5888 5886 5884 5882 5880 5878 5876 5874 5873 5871 5870 5868 5867 5865 5864 5862 5861 5859 5858 5856 5855 5854 5852 5851 5850 5849 5848 5848 5847 5846 5846 5845 5844 5844 5844 5844 5843
5899 5897 5895 5893 5890 5888 5886 5884 5882 5880 5878 5876 5874 5872 5870 5869 5867 5866 5864 5863 5861 5859 5858 5856 5854 5853 5852 5850 5848 5846 5845 5844 5844 5843 5842 5841 5841 5840 5839 5839 5838 5838 5838
5897 5895 5893 5891 5888 5886 5884 5881 5879 5877 5876 5874 5872 5870 5867 5866 5864 5862 5861 5859 5858 5856 5854 5852 5851 5849 5847 5846 5844 5842 5840 5839 5838 5838 5837 5836 5835 5834 5834 5833 5832 5832 5831
5894 5892 5890 5888 5886 5884 5882 5879 5877 5875 5873 5871 5869 5867 5864 5862 5861 5859 5857 5855 5854 5852 5850 5848 5846 5844 5843 5841 5839 5837 5835 5834 5833 5832 5831 5830 5829 5828 5828 5827 5826 5826 5825
5891 5889 5887 5885 5883 5881 5879 5877 5874 5872 5870 5868 5866 5863 5861 5859 5857 5855 5853 5851 5849 5847 5845 5843 5842 5840 5838 5836 5834 5832 5830 5828 5827 5826 5825 5824 5823 5822 5821 5820 5820 5819 5818
5888 5887 5884 5882 5880 5878 5876 5873 5871 5869 5866 5864 5861 5859 5857 5856 5854 5851 5849 5847 5844 5842 5840 5838 5836 5834 5832 5830 5828 5826 5824 5823 5821 5820 5818 5817 5816 5815 5814 5813 5812 5811 5810
5884 5883 5880 5878 5876 5874 5872 5869 5867 5864 5862 5860 5857 5855 5853 5851 5849 5847 5844 5841 5839 5837 5835 5833 5830 5828 5826 5824 5822 5820 5818 5816 5815 5813 5812 5810 5809 5808 5807 5806 5805 5804 5803
5880 5878 5876 5874 5872 5869 5867 5865 5862 5860 5858 5855 5853 5851 5848 5846 5844 5842 5839 5836 5834 5831 5829 5827 5824 5822 5819 5817 5815 5814 5812 5810 5808 5806 5805 5803 5802 5801 5799 5798 5797 5796 5795
5875 5873 5871 5869 5867 5865 5862 5860 5858 5855 5852 5850 5848 5845 5843 5841 5839 5836 5833 5831 5828 5825 5822 5820 5817 5815 5812 5810 5808 5806 5805 5803 5801 5799 5797 5795 5794 5793 5791 5790 5788 5787 5786
5870 5868 5866 5865 5862 5860 5857 5855 5852 5849 5847 5845 5842 5840 5838 5835 5833 5830 5827 5825 5822 5819 5816 5813 5810 5807 5805 5802 5800 5799 5797 5795 5793 5791 5789 5787 5786 5785 5784 5782 5780 5779 5778
5865 5863 5861 5859 5857 5855 5852 5849 5846 5844 5841 5839 5837 5834 5832 5829 5827 5824 5821 5818 5815 5812 5808 5805 5802 5800 5797 5794 5792 5791 5789 5787 5786 5784 5782 5780 5779 5777 5776 5774 5773 5771 5769
5858 5857 5855 5853 5851 5849 5846 5844 5841 5838 5836 5834 5831 5828 5826 5823 5820 5817 5814 5811 5808 5805 5802 5799 5796 5793 5790 5787 5784 5783 5781 5780 5778 5776 5774 5772 5771 5769 5767 5766 5764 5763 5761
5852 5851 5849 5847 5845 5843 5840 5838 5835 5832 5830 5827 5824 5822 5819 5816 5813 5810 5807 5804 5801 5798 5795 5792 5789 5786 5783 5780 5778 5776 5774 5772 5770 5767 5766 5764 5762 5761 5759 5757 5756 5754 5753
5845 5844 5842 5840 5838 5836 5834 5831 5828 5826 5823 5820 5817 5814 5811 5808 5805 5803 5800 5797 5794 5791 5788 5785 5782 5779 5776 5773 5771 5768 5766 5764 5762 5760 5758 5756 5754 5752 5751 5749 5747 5746 5744
5838 5837 5835 5833 5831 5829 5826 5824 5821 5818 5815 5812 5809 5806 5803 5800 5798 5795 5793 5790 5787 5784 5781 5778 5775 5772 5769 5766 5763 5761 5759 5756 5754 5752 5749 5747 5745 5744 5742 5741 5739 5737 5735
5831 5830 5828 5826 5823 5821 5818 5815 5813 5810 5807 5804 5802 5799 5796 5793 5790 5787 5785 5782 5779 5776 5773 5770 5767 5764 5761 5758 5756 5753 5751 5748 5746 5744 5741 5739 5737 5736 5734 5732 5730 5728 5726
5824 5822 5820 5818 5815 5813 5810 5807 5804 5801 5799 5796 5793 5791 5788 5785 5782 5780 5777 5774 5772 5768 5766 5762 5759 5756 5754 5751 5748 5745 5743 5741 5738 5736 5733 5731 5729 5727 5725 5723 5721 5719 5717
5818 5815 5813 5811 5808 5805 5802 5799 5796 5793 5790 5788 5785 5782 5780 5777 5774 5772 5769 5766 5763 5760 5757 5754 5751 5748 5746 5743 5741 5738 5736 5733 5730 5728 5725 5723 5721 5718 5716 5714 5712 5709 5707